Weather History for Cairns, QU

Change the Weather History Date:

Sunday, August 18, 2013

  Actual Average Record
Temperature  
Mean Temperature 72 °F -  
Max Temperature 82 °F 81 °F 84 °F (1998)
Min Temperature 63 °F 65 °F 55 °F (2001)
Cooling Degree Days 8    
Growing Degree Days 22 (Base 50)    
Moisture  
Dew Point 62 °F    
Average Humidity 71    
Maximum Humidity 94    
Minimum Humidity 36    
Precipitation  
Precipitation 0.00 in 0.04 in - ()
Sea Level Pressure  
Sea Level Pressure 30.00 in    
Wind  
Wind Speed 7 mph ()    
Max Wind Speed 15 mph    
Max Gust Speed -    
Visibility 6.7 miles    
Events      
Averages and records for this station are not official NWS values.
T = Trace of Precipitation, MM = Missing Value Source: Averaged Metar Reports

Daily Weather History Graph

Daily Weather History Graph

Search for Another Location

Airport:

Trip Planner

Search our weather history database for the weather conditions in past years. The results will help you decide how hot, cold, wet, or windy it might be!

Date:

Astronomy

Aug. 18, 2013 Rise Set
Actual Time 6:33 AM AEST 6:08 PM AEST
Civil Twilight 6:11 AM AEST 6:30 PM AEST
Nautical Twilight 5:45 AM AEST 6:56 PM AEST
Astronomical Twilight 5:20 AM AEST 7:21 PM AEST
Moon 3:14 PM AEST (8/18) 3:31 AM AEST (8/18)
Length of Visible Light 12h 18m
Length of Day
11h 34m
Waxing Gibbous, 87% of the Moon is Illuminated
Aug 18
Waxing Gibbous
Aug 21
Full
Aug 28
Last Quarter
Sep 5
New
Sep 13
First Quarter

Hourly Weather History & Observations

Time (AEST) Temp. Heat Index Dew Point Humidity Pressure Visibility Wind Dir Wind Speed Gust Speed Precip Events Conditions
12:00 AM 64 °F - 61 °F 87% 30.04 in - Calm Calm - -  
12:00 AM 64.4 °F - 60.8 °F 88% 30.04 in 6.2 mi Calm Calm - N/A   Partly Cloudy
12:30 AM 64.4 °F - 60.8 °F 88% 30.01 in 6.2 mi West 3.5 mph - N/A   Partly Cloudy
1:00 AM 65 °F - 62 °F 88% 30.02 in - Calm Calm - -  
1:00 AM 64.4 °F - 62.6 °F 94% 30.01 in 6.2 mi Calm Calm - N/A   Partly Cloudy
1:30 AM 66.2 °F - 62.6 °F 88% 30.01 in 6.2 mi SSE 8.1 mph - N/A   Partly Cloudy
2:00 AM 66.2 °F - 60.8 °F 83% 29.98 in 6.2 mi SE 10.4 mph - N/A   Partly Cloudy
2:30 AM 66.2 °F - 60.8 °F 83% 29.98 in 6.2 mi SE 10.4 mph - N/A   Partly Cloudy
3:00 AM 64 °F - 61 °F 87% 29.99 in - West 4.6 mph - -  
3:00 AM 64.4 °F - 60.8 °F 88% 29.98 in 6.2 mi West 4.6 mph - N/A   Partly Cloudy
3:30 AM 66.2 °F - 60.8 °F 83% 29.98 in 6.2 mi SE 11.5 mph - N/A   Partly Cloudy
4:00 AM 64 °F - 61 °F 85% 30.00 in - SSE 9.2 mph - -  
4:00 AM 64.4 °F - 60.8 °F 88% 29.98 in 6.2 mi SSE 9.2 mph - N/A   Partly Cloudy
4:30 AM 64.4 °F - 60.8 °F 88% 29.98 in 6.2 mi SSE 10.4 mph - N/A   Partly Cloudy
5:00 AM 64.4 °F - 60.8 °F 88% 29.98 in 6.2 mi SSE 12.7 mph - N/A   Partly Cloudy
5:30 AM 64.4 °F - 60.8 °F 88% 30.01 in 6.2 mi SSE 11.5 mph - N/A   Partly Cloudy
6:00 AM 66.2 °F - 60.8 °F 83% 30.01 in 6.2 mi SSE 15.0 mph - N/A   Partly Cloudy
6:30 AM 64.4 °F - 60.8 °F 88% 30.01 in 6.2 mi SSW 4.6 mph - N/A   Partly Cloudy
7:00 AM 65 °F - 61 °F 81% 30.04 in - SSE 8.1 mph - -  
7:00 AM 64.4 °F - 60.8 °F 88% 30.04 in 6.2 mi SSE 8.1 mph - N/A   Partly Cloudy
7:30 AM 68.0 °F - 60.8 °F 78% 30.04 in 6.2 mi SE 12.7 mph - N/A   Partly Cloudy
8:00 AM 69.8 °F - 60.8 °F 73% 30.04 in 6.2 mi SE 11.5 mph - N/A   Partly Cloudy
8:30 AM 71.6 °F - 60.8 °F 69% 30.04 in 6.2 mi ESE 11.5 mph - N/A   Partly Cloudy
9:00 AM 76 °F - 62 °F 52% 30.06 in 19 mi SSE 9.2 mph - -   Partly Cloudy
9:00 AM 77.0 °F - 62.6 °F 61% 30.04 in 6.2 mi SSE 9.2 mph - N/A   Partly Cloudy
9:30 AM 77.0 °F - 62.6 °F 61% 30.04 in 6.2 mi SSE 10.4 mph - N/A   Partly Cloudy
10:00 AM 78 °F - 63 °F 50% 30.06 in - SSE 8.1 mph - -  
10:00 AM 78.8 °F - 62.6 °F 57% 30.04 in 6.2 mi SSE 8.1 mph - N/A   Partly Cloudy
10:30 AM 80.6 °F 81.8 °F 62.6 °F 54% 30.04 in 6.2 mi SSE 10.4 mph - N/A   Partly Cloudy
11:00 AM 80.6 °F 81.8 °F 62.6 °F 54% 30.04 in 6.2 mi SSE 10.4 mph - N/A   Partly Cloudy
11:30 AM 80.6 °F 81.5 °F 60.8 °F 51% 30.01 in 6.2 mi SE 9.2 mph - N/A   Partly Cloudy
12:00 PM 82 °F - 62 °F 41% 30.01 in - ENE 10.4 mph - -   Overcast
12:00 PM 82.4 °F 83.4 °F 62.6 °F 51% 30.01 in 6.2 mi ENE 10.4 mph - N/A   Partly Cloudy
12:30 PM 80.6 °F 81.1 °F 59.0 °F 48% 29.98 in 6.2 mi ESE 10.4 mph - N/A   Partly Cloudy
1:00 PM 82 °F - 59 °F 36% 29.99 in - ENE 13.8 mph - -  
1:00 PM 82.4 °F 82.5 °F 59.0 °F 45% 29.98 in 6.2 mi ENE 13.8 mph - N/A   Partly Cloudy
1:30 PM 82.4 °F 82.9 °F 60.8 °F 48% 29.95 in 6.2 mi ENE 15.0 mph - N/A   Partly Cloudy
2:00 PM 82.4 °F 82.9 °F 60.8 °F 48% 29.95 in 6.2 mi ENE 15.0 mph - N/A   Partly Cloudy
2:30 PM 82.4 °F 82.9 °F 60.8 °F 48% 29.95 in 6.2 mi ENE 15.0 mph - N/A   Partly Cloudy
3:00 PM 81 °F - 61 °F 40% 29.95 in 19 mi East 13.8 mph - -   Partly Cloudy
3:00 PM 80.6 °F 81.5 °F 60.8 °F 51% 29.95 in 6.2 mi East 13.8 mph - N/A   Partly Cloudy
3:30 PM 80.6 °F 81.8 °F 62.6 °F 54% 29.95 in 6.2 mi East 13.8 mph - N/A   Partly Cloudy
4:00 PM 80 °F - 63 °F 46% 29.96 in - ENE 12.7 mph - -  
4:00 PM 80.6 °F 81.8 °F 62.6 °F 54% 29.95 in 6.2 mi ENE 12.7 mph - N/A   Partly Cloudy
4:30 PM 78.8 °F - 62.6 °F 57% 29.95 in 6.2 mi East 12.7 mph - N/A   Partly Cloudy
5:00 PM 78.8 °F - 64.4 °F 61% 29.95 in 6.2 mi ENE 11.5 mph - N/A   Partly Cloudy
5:30 PM 77.0 °F - 64.4 °F 65% 29.95 in 6.2 mi East 12.7 mph - N/A   Partly Cloudy
6:00 PM 75 °F - 64 °F 61% 29.98 in - ESE 9.2 mph - -  
6:00 PM 75.2 °F - 64.4 °F 69% 29.98 in 6.2 mi ESE 9.2 mph - N/A   Partly Cloudy
6:30 PM 73.4 °F - 64.4 °F 73% 29.98 in 6.2 mi SE 6.9 mph - N/A   Partly Cloudy
7:00 PM 72 °F - 64 °F 70% 30.00 in - South 4.6 mph - -  
7:00 PM 71.6 °F - 64.4 °F 78% 29.98 in 6.2 mi South 4.6 mph - N/A   Partly Cloudy
7:30 PM 71.6 °F - 64.4 °F 78% 30.01 in 6.2 mi South 5.8 mph - N/A   Partly Cloudy
8:00 PM 71.6 °F - 64.4 °F 78% 30.01 in 6.2 mi South 5.8 mph - N/A   Partly Cloudy
8:30 PM 69.8 °F - 64.4 °F 83% 30.01 in 6.2 mi SSE 2.3 mph - N/A   Partly Cloudy
9:00 PM 70 °F - 65 °F 80% 30.04 in - South 2.3 mph - -  
9:00 PM 69.8 °F - 64.4 °F 83% 30.04 in 6.2 mi South 2.3 mph - N/A   Partly Cloudy
9:30 PM 69.8 °F - 64.4 °F 83% 30.04 in 6.2 mi South 3.5 mph - N/A   Partly Cloudy
10:00 PM 70 °F - 65 °F 79% 30.04 in - SSW 5.8 mph - -  
10:00 PM 69.8 °F - 64.4 °F 83% 30.04 in 6.2 mi SSW 5.8 mph - N/A   Partly Cloudy
10:30 PM 64.4 °F - 62.6 °F 94% 30.04 in 6.2 mi North 3.5 mph - N/A   Partly Cloudy
11:00 PM 66.2 °F - 62.6 °F 88% 30.04 in 6.2 mi Calm Calm - N/A   Partly Cloudy
11:30 PM 68.0 °F - 64.4 °F 88% 30.04 in 6.2 mi South 4.6 mph - N/A   Partly Cloudy